When you browse on this site, cookies collect data to enhance your experience and personalize the content and advertising you see.
Visit our Privacy Policy to learn more. By continuing to use the site, you agree to this use of cookies and data.
  • In Romania
  • List of Countries
  • For 7 days
  • Water Temperature
  • Weather Map
  • Weather Widgets
  • user-avatar
    Login

    Hourly Weather Sartrouville

    Today, 6 June, Saturday

    Time Temperature Precipitation Wind Pressure Humidity
    00:00 +12°C° 0 mm 3 mps 747 mmHg 86%
    01:00 +12°C° 0.1 mm 3 mps 746 mmHg 85%
    02:00 +12°C° 0.1 mm 3 mps 746 mmHg 84%
    03:00 +11°C° 0.1 mm 4 mps 746 mmHg 83%
    04:00 +11°C° 0 mm 4 mps 746 mmHg 80%
    05:00 +11°C° 0 mm 4 mps 747 mmHg 78%
    06:00 +12°C° 0 mm 4 mps 747 mmHg 76%
    07:00 +13°C° 0 mm 5 mps 747 mmHg 68%
    08:00 +14°C° 0 mm 5 mps 747 mmHg 61%
    09:00 +15°C° 0 mm 5 mps 748 mmHg 54%
    10:00 +15°C° 0 mm 6 mps 748 mmHg 51%
    11:00 +16°C° 0 mm 6 mps 748 mmHg 49%
    12:00 +16°C° 0 mm 6 mps 748 mmHg 47%
    13:00 +16°C° 0.1 mm 6 mps 748 mmHg 48%
    14:00 +16°C° 0.1 mm 6 mps 748 mmHg 49%
    15:00 +16°C° 0.1 mm 6 mps 748 mmHg 50%
    16:00 +16°C° 0 mm 6 mps 748 mmHg 51%
    17:00 +15°C° 0 mm 5 mps 748 mmHg 52%
    18:00 +14°C° 0 mm 5 mps 749 mmHg 53%
    19:00 +13°C° 0 mm 5 mps 749 mmHg 57%
    20:00 +12°C° 0 mm 4 mps 749 mmHg 60%
    21:00 +10°C° 0 mm 4 mps 749 mmHg 64%
    22:00 +10°C° 0 mm 4 mps 750 mmHg 67%
    23:00 +10°C° 0 mm 4 mps 750 mmHg 70%

    Tomorrow, 7 June, Sunday

    Time Temperature Precipitation Wind Pressure Humidity
    00:00 +8°C° 0 mm 4 mps 750 mmHg 73%
    01:00 +8°C° 0 mm 4 mps 750 mmHg 76%
    02:00 +8°C° 0 mm 4 mps 750 mmHg 79%
    03:00 +8°C° 0 mm 4 mps 750 mmHg 82%
    04:00 +9°C° 0 mm 3 mps 750 mmHg 82%
    05:00 +10°C° 0 mm 3 mps 751 mmHg 81%
    06:00 +10°C° 0 mm 3 mps 751 mmHg 81%
    07:00 +12°C° 0 mm 3 mps 751 mmHg 76%
    08:00 +13°C° 0 mm 3 mps 752 mmHg 71%
    09:00 +16°C° 0 mm 3 mps 752 mmHg 66%
    10:00 +17°C° 0.1 mm 3 mps 752 mmHg 62%
    11:00 +18°C° 0.1 mm 3 mps 752 mmHg 58%
    12:00 +19°C° 0.1 mm 3 mps 752 mmHg 55%
    13:00 +19°C° 0.1 mm 3 mps 752 mmHg 55%
    14:00 +19°C° 0.1 mm 2 mps 752 mmHg 55%
    15:00 +19°C° 0.1 mm 2 mps 752 mmHg 55%
    16:00 +19°C° 0.2 mm 2 mps 752 mmHg 57%
    17:00 +19°C° 0.2 mm 2 mps 752 mmHg 60%
    18:00 +19°C° 0.2 mm 2 mps 752 mmHg 62%
    19:00 +17°C° 0.2 mm 2 mps 753 mmHg 68%
    20:00 +16°C° 0.2 mm 2 mps 753 mmHg 73%
    21:00 +14°C° 0.2 mm 2 mps 754 mmHg 79%
    22:00 +14°C° 0 mm 2 mps 754 mmHg 80%
    23:00 +13°C° 0 mm 2 mps 754 mmHg 82%

    Day after tomorrow, 8 June, Monday

    Time Temperature Precipitation Wind Pressure Humidity
    00:00 +12°C° 0 mm 2 mps 754 mmHg 83%
    01:00 +12°C° 0 mm 2 mps 754 mmHg 83%
    02:00 +10°C° 0 mm 2 mps 754 mmHg 83%
    03:00 +10°C° 0 mm 2 mps 754 mmHg 84%
    04:00 +12°C° 0 mm 2 mps 754 mmHg 84%
    05:00 +12°C° 0 mm 2 mps 754 mmHg 84%
    06:00 +12°C° 0 mm 2 mps 755 mmHg 84%
    07:00 +14°C° 0 mm 2 mps 755 mmHg 77%
    08:00 +16°C° 0 mm 2 mps 755 mmHg 71%
    09:00 +17°C° 0 mm 2 mps 755 mmHg 65%
    10:00 +18°C° 0.2 mm 3 mps 755 mmHg 61%
    11:00 +19°C° 0.2 mm 3 mps 755 mmHg 58%
    12:00 +20°C° 0.2 mm 3 mps 755 mmHg 55%
    13:00 +20°C° 0.2 mm 4 mps 755 mmHg 55%
    14:00 +20°C° 0.2 mm 4 mps 755 mmHg 55%
    15:00 +20°C° 0.2 mm 5 mps 755 mmHg 55%
    16:00 +19°C° 0.1 mm 5 mps 755 mmHg 59%
    17:00 +19°C° 0.1 mm 5 mps 755 mmHg 62%
    18:00 +17°C° 0.1 mm 5 mps 755 mmHg 66%
    19:00 +15°C° 0 mm 5 mps 756 mmHg 69%
    20:00 +14°C° 0 mm 5 mps 757 mmHg 72%
    21:00 +13°C° 0 mm 5 mps 757 mmHg 76%
    22:00 +12°C° 0 mm 4 mps 757 mmHg 76%
    23:00 +10°C° 0 mm 4 mps 757 mmHg 76%

    9 June, Tuesday

    Time Temperature Precipitation Wind Pressure Humidity
    00:00 +8°C° 0 mm 4 mps 758 mmHg 77%
    01:00 +8°C° 0 mm 4 mps 758 mmHg 78%
    02:00 +8°C° 0 mm 3 mps 758 mmHg 80%
    03:00 +8°C° 0 mm 3 mps 758 mmHg 82%
    04:00 +8°C° 0 mm 3 mps 758 mmHg 80%
    05:00 +8°C° 0 mm 4 mps 758 mmHg 79%
    06:00 +8°C° 0 mm 4 mps 758 mmHg 77%
    07:00 +11°C° 0 mm 4 mps 758 mmHg 73%
    08:00 +13°C° 0 mm 4 mps 758 mmHg 69%
    09:00 +15°C° 0 mm 4 mps 759 mmHg 64%
    10:00 +15°C° 0 mm 4 mps 758 mmHg 62%
    11:00 +17°C° 0 mm 4 mps 758 mmHg 60%
    12:00 +18°C° 0 mm 4 mps 758 mmHg 58%
    13:00 +18°C° 0 mm 4 mps 758 mmHg 57%
    14:00 +18°C° 0 mm 4 mps 758 mmHg 56%
    15:00 +18°C° 0 mm 4 mps 758 mmHg 56%
    16:00 +18°C° 0 mm 4 mps 758 mmHg 57%
    17:00 +18°C° 0 mm 4 mps 758 mmHg 59%
    18:00 +17°C° 0 mm 4 mps 758 mmHg 60%
    19:00 +15°C° 0 mm 4 mps 758 mmHg 66%
    20:00 +14°C° 0 mm 4 mps 759 mmHg 71%
    21:00 +12°C° 0 mm 4 mps 759 mmHg 76%
    22:00 +11°C° 0 mm 3 mps 759 mmHg 77%
    23:00 +10°C° 0 mm 3 mps 759 mmHg 79%

    10 June, Wednesday

    Time Temperature Precipitation Wind Pressure Humidity
    00:00 +9°C° 0 mm 3 mps 759 mmHg 80%
    01:00 +9°C° 0 mm 2 mps 759 mmHg 80%
    02:00 +8°C° 0 mm 2 mps 759 mmHg 81%
    03:00 +8°C° 0 mm 2 mps 758 mmHg 81%
    04:00 +8°C° 0 mm 2 mps 758 mmHg 78%
    05:00 +9°C° 0 mm 2 mps 758 mmHg 76%
    06:00 +9°C° 0 mm 2 mps 758 mmHg 73%
    07:00 +12°C° 0 mm 2 mps 758 mmHg 67%
    08:00 +14°C° 0 mm 2 mps 758 mmHg 61%
    09:00 +16°C° 0 mm 3 mps 758 mmHg 56%
    10:00 +17°C° 0 mm 2 mps 758 mmHg 51%
    11:00 +19°C° 0 mm 2 mps 757 mmHg 47%
    12:00 +20°C° 0 mm 2 mps 757 mmHg 43%
    13:00 +20°C° 0 mm 2 mps 756 mmHg 44%
    14:00 +20°C° 0 mm 3 mps 756 mmHg 45%
    15:00 +20°C° 0 mm 3 mps 755 mmHg 47%
    16:00 +19°C° 0 mm 3 mps 755 mmHg 52%
    17:00 +19°C° 0 mm 3 mps 755 mmHg 57%
    18:00 +18°C° 0 mm 3 mps 755 mmHg 62%
    19:00 +17°C° 0 mm 2 mps 755 mmHg 67%
    20:00 +16°C° 0 mm 1 mps 755 mmHg 71%
    21:00 +15°C° 0 mm 1 mps 755 mmHg 76%
    22:00 +15°C° 0 mm 1 mps 755 mmHg 76%
    23:00 +14°C° 0 mm 1 mps 754 mmHg 77%

    11 June, Thursday

    Time Temperature Precipitation Wind Pressure Humidity
    00:00 +14°C° 0 mm 1 mps 754 mmHg 78%
    01:00 +13°C° 0 mm 2 mps 753 mmHg 79%
    02:00 +13°C° 0 mm 2 mps 753 mmHg 80%
    03:00 +13°C° 0 mm 2 mps 752 mmHg 81%
    04:00 +12°C° 0 mm 3 mps 752 mmHg 79%
    05:00 +12°C° 0 mm 4 mps 751 mmHg 76%
    06:00 +13°C° 0 mm 4 mps 751 mmHg 74%
    07:00 +13°C° 0 mm 5 mps 750 mmHg 72%
    08:00 +14°C° 0 mm 6 mps 749 mmHg 70%
    09:00 +14°C° 0 mm 6 mps 749 mmHg 68%
    10:00 +14°C° 0.2 mm 7 mps 748 mmHg 71%
    11:00 +14°C° 0.2 mm 7 mps 748 mmHg 74%
    12:00 +14°C° 0.2 mm 7 mps 747 mmHg 77%
    13:00 +14°C° 2.8 mm 6 mps 747 mmHg 78%
    14:00 +14°C° 2.8 mm 5 mps 746 mmHg 80%
    15:00 +13°C° 2.8 mm 4 mps 746 mmHg 81%
    16:00 +14°C° 0.3 mm 4 mps 746 mmHg 79%
    17:00 +14°C° 0.3 mm 4 mps 746 mmHg 77%
    18:00 +14°C° 0.3 mm 3 mps 747 mmHg 74%
    19:00 +13°C° 0.3 mm 3 mps 747 mmHg 77%
    20:00 +12°C° 0.3 mm 3 mps 747 mmHg 80%
    21:00 +11°C° 0.3 mm 3 mps 748 mmHg 82%
    22:00 +10°C° 0 mm 3 mps 747 mmHg 83%
    23:00 +10°C° 0 mm 3 mps 747 mmHg 84%
    Show more